Location: Aalen
(48.8330°N, 10.1000°E)
Time: 04:15:41
(UTC+01:00)

Envisat - Pass Details

Date: 05 December 2022
Orbit: 763 x 765 km, 98.2° (Epoch: 28 January)

Event Time Altitude Azimuth Distance (km) Brightness Sun altitude
Rises 05:43:48 0° 6° (N) 3,246 6.2 -20.9°
Reaches altitude 10° 05:46:20 10° 356° (N) 2,315 5.3 -20.5°
Enters shadow 05:48:36 22° 336° (NNW) 1,627 4.4 -20.1°
